OpenBCM V2.0.3 (Linux)

Packet Radio Mailbox

IZ3LSV

[San Dona' di P. JN]

 Login: GUEST





  
LU9DCE > KEPS     01.07.16 15:20l 177 Lines 8688 Bytes #999 (0) @ WW
BID : 2511_LU9DCE
Read: GUEST
Subj: TLE OF jul 1
Path: IZ3LSV<IR1UAW<IK1NHL<CX2SA<LU9DCE
Sent: 160701/1303Z @:LU9DCE.TOR.BA.ARG.SOAM #:2511 [TORTUGUITAS] $:2511_LU9DCE
From: LU9DCE@LU9DCE.TOR.BA.ARG.SOAM
To  : KEPS@AMSAT

OSCAR 3
1 01293U 65016F   16182.82692296  .00000089  00000-0  87114-4 0  9997
2 01293  70.0745  10.2581 0018677 333.2217  26.7929 14.06074788620959
OSCAR 5
1  4321U 70008B   16181.89709817 -.00000057 +00000-0 -73994-4 0  9991
2  4321 101.7975 246.5858 0028230 127.5319 285.5669 12.52169570121949
OSCAR 6
1  6236U 72082B   16181.86781428 -.00000031 +00000-0 +83490-4 0  9990
2  6236 101.6532 146.8434 0003678 284.4749 130.4687 12.53130922999081
OSCAR 7
1 07530U 74089B   16182.55594553 -.00000028  00000-0  10138-3 0  9999
2 07530 101.5752 152.9868 0011571 286.2348 183.6309 12.53621946904793
OSCAR 8
1 10703U 78026B   16182.89075513 -.00000224  00000-0 -12534-3 0  9998
2 10703  98.8335 150.9312 0006351 219.7317 167.1039 13.99201649955465
OSCAR 10
1 14129U 83058B   16183.15351807 -.00000456  00000-0  00000+0 0  9995
2 14129  26.7571  90.6355 6008153 211.3656 341.5050  2.05870272220591
OSCAR 11 (UoSAT 2)
1 14781U 84021B   16182.19314641  .00000111  00000-0  20079-4 0  9998
2 14781  97.7483 233.7989 0007034 272.7932  87.2477 14.82758812738186
OSCAR 16 (PACSAT)
1 20439U 90005D   16182.80709850  .00000012  00000-0  20626-4 0  9990
2 20439  98.5743 119.1789 0011864 116.4660 296.9040 14.32636037381092
OSCAR 17 (DOVE)
1 20440U 90005E   16182.06521014  .00000011  00000-0  19865-4 0  9996
2 20440  98.5552 118.0390 0011999 105.8572 317.5865 14.33025795381214
OSCAR 18 (WEBERSAT)
1 20441U 90005F   16182.07761786  .00000002  00000-0  16921-4 0  9990
2 20441  98.5587 117.3838 0012555 113.8285 312.0451 14.32683875381074
OSCAR 19 (LUSAT)
1 20442U 90005G   16182.40355946 -.00000015  00000-0  10612-4 0  9991
2 20442  98.5438 117.1617 0012932 105.4500 254.8114 14.32820772381246
JAS 1B (FUJI 2)
1 20480U 90013C   16183.15986704 -.00000017  00000-0  25277-4 0  9992
2 20480  99.0218  16.7537 0541043 106.5871   5.5276 12.83411657236698
COSMOS 2123
1 21089U 91007A   16183.07358766  .00000036  00000-0  22248-4 0  9999
2 21089  82.9227 158.4358 0029485   9.2388  59.8032 13.74636881274371
OSCAR 22 (UoSAT 5)
1 21575U 91050B   16182.88770283  .00000024  00000-0  22143-4 0  9998
2 21575  98.7606 184.7782 0006144 265.1464  94.9022 14.40746391310692
OSCAR 23 (KITSAT 1)
1 22077U 92052B   16181.93194713 -.00000046 +00000-0 +62340-4 0  9990
2 22077 066.0854 344.4073 0011268 225.0056 302.4499 12.86513792121708
KITSAT B
1 22825U 93061C   16182.86942381 -.00000013  00000-0  12618-4 0  9994
2 22825  98.7602 139.2011 0007283 279.9541  80.0819 14.29959661187191
POSAT 1
1 22826U 93061D   16182.49101550  .00000001  00000-0  17933-4 0  9990
2 22826  98.7545 138.9429 0007775 270.8839  89.1452 14.30284643187302
ITAMSAT
1 22828U 93061F   16182.84530723 -.00000010  00000-0  13402-4 0  9997
2 22828  98.7454 138.2521 0008875 234.9102 125.1248 14.30594927155707
EYESAT A
1 22829U 93061G   16182.21508287  .00000008  00000-0  20447-4 0  9992
2 22829  98.7489 140.0505 0008820 227.1161 180.7599 14.30931788187732
RADIO ROSTO
1 23439U 94085A   16181.89452503 -.00000033 +00000-0 +28060-3 0  9996
2 23439 064.8160 068.9791 0165525 305.6798 052.8815 11.27565731885851
JAS 2
1 24278U 96046B   16182.33322265 -.00000028  00000-0  68379-5 0  9991
2 24278  98.5855 105.8305 0350580 168.4381 192.5080 13.53068660981291
TMSAT
1 25396U 98043C   16182.44887319 -.00000001  00000-0  18071-4 0  9994
2 25396  98.5401 129.3180 0001424 276.9897  83.1120 14.24398154934098
TECHSAT 1B
1 25397U 98043D   16182.42445956 -.00000014  00000-0  12620-4 0  9998
2 25397  98.5676 127.0230 0000779   9.7513 350.3681 14.23597061933742
SEDSAT 1
1 25509U 98061B   16182.61464981  .00000140  00000-0  14466-4 0  9992
2 25509  31.4316 259.7081 0347036 160.6537 200.7627 14.30200776923776
PAN SAT
1 25520U 98064B   16183.18871669  .00000854  00000-0  22706-4 0  9994
2 25520  28.4564 213.9369 0005513  74.8020 285.3184 15.27743811980549
ISS (ZARYA)
1 25544U 98067A   16183.48326441  .00002265  00000-0  40595-4 0  9993
2 25544  51.6445 346.7114 0001070  30.9378  18.0491 15.54713655  7216
OSCAR 36 (UOSAT 12)
1 25693U 99021A   16182.84971594 -.00000092  00000-0  64358-5 0  9994
2 25693  64.5559 128.4312 0005497 228.7036 131.3596 14.80660099928140
OPAL
1 26063U 00004C   16182.79303581 -.00000021  00000-0  12745-4 0  9992
2 26063 100.1894 115.7005 0035985 218.4204 141.4413 14.36622221860924
SAUDISAT 1A
1 26545U 00057A   16182.84887268  .00000010  00000-0  19223-4 0  9995
2 26545  64.5551  96.6957 0055858 277.3105  82.1655 14.84577163852185
TIUNGSAT 1
1 26548U 00057D   16182.87353281  .00000089  00000-0  26203-4 0  9996
2 26548  64.5513  17.5587 0050694 271.4301  88.1001 14.88759254853799
SAUDISAT 1B
1 26549U 00057E   16182.85195615  .00000047  00000-0  24055-4 0  9997
2 26549  64.5540 128.6538 0059067 281.3555  78.0919 14.83202008851535
AMSAT OSCAR 40
1 26609U 00072B   16180.36735872 -.00000281  00000-0  00000+0 0  9990
2 26609   8.0634 296.7007 7976818 353.0347   0.3067  1.25587333 71896
PCSAT
1 26931U 01043C   16182.55274860 -.00000033  00000-0  19032-4 0  9990
2 26931  67.0519 278.4259 0006561 260.0295 100.0065 14.30413282770059
SAPPHIRE
1 26932U 01043D   16183.24075134 -.00000057  00000-0  99788-5 0  9994
2 26932  67.0568 278.5006 0007983 252.0440 107.9791 14.30216152770180
RUBIN 2
1 27605U 02058A   16183.18993789 -.00000055  00000-0  13111-4 0  9990
2 27605  64.5560  99.6472 0067501 213.8937 145.7843 14.74808770727719
SAUDISAT 1C
1 27607U 02058C   16182.18131887 -.00000005  00000-0  20241-4 0  9991
2 27607  64.5553 121.1424 0066834 214.2589 145.4194 14.75171298727183
MOZHAYETS 4
1 27939U 03042A   16182.98082774  .00000119  00000-0  29806-4 0  9992
2 27939  97.8894 334.1245 0011846 262.3220  97.6632 14.66416276681849
AMSAT ECHO
1 28375U 04025K   16182.86669052  .00000004  00000-0  14498-4 0  9990
2 28375  98.3285 118.2503 0081330 263.2894  95.9035 14.41785596631192
HAMSAT
1 28650U 05017B   16183.18374632  .00000302  00000-0  38228-4 0  9999
2 28650  97.6085 164.4643 0022839 209.7182 150.2739 14.88312503603954
SSETI-EXPRESS
1 28894U 05043E   16183.07766780  .00000067  00000-0  22367-4 0  9990
2 28894  97.8427 351.5196 0017091 180.9510 179.1662 14.61354008569051
MOZ.5/SAFIR/RUBIN 5/SL-8
1 28898U 05043G   16182.50678584  .00000057  00000-0  20938-4 0  9996
2 28898  97.8810 342.5702 0019122 210.2152 149.7947 14.60107163568516
PEHUENSAT 1
1 29712U 07001D   16182.80917661  .00003204  00000-0  20220-3 0  9993
2 29712  97.5791 204.6385 0008884  51.6462 308.5564 15.09786452514278
DELFI C3
1 32789U 08021G   16182.17592649  .00002015  00000-0  15278-3 0  9995
2 32789  97.6060 241.1733 0012815 212.0697 147.9750 15.03307745443957
YUBELEINY
1 32953U 08025A   16183.12725162  .00000010  00000-0 -13620-7 0  9993
2 32953  82.5032  97.9859 0018919 335.6942  24.3244 12.43070191367813
PRISM (HITOMI)
1 33493U 09002B   16183.12657615  .00000871  00000-0  85429-4 0  9993
2 33493  98.2159  43.8768 0015989 154.6558 205.5387 14.94975237403312
STARS (KUKAI)
1 33498U 09002G   16182.88925428  .00000269  00000-0  44716-4 0  9995
2 33498  98.2895 339.7641 0011881  41.1293 122.6357 14.78260428399999
KKS-1 (KISEKI)
1 33499U 09002H   16182.84030259  .00000143  00000-0  29200-4 0  9993
2 33499  98.2896 332.8470 0010308  58.1490 302.0720 14.75003102399567
SUMBANDILA
1 35870U 09049F   16183.07710720  .00004437  00000-0  83774-4 0  9999
2 35870  97.1186 197.7536 0001278  82.0583 312.1495 15.48969516378792
XIWANG-1 (HOPE-1)
1 36122U 09072B   16183.04339024 -.00000059  00000-0 -43517-4 0  9996
2 36122 100.1402 218.3388 0007353 327.3953  32.6710 13.16334720314431
JUGNU
1 37839U 11058B   16182.85440032  .00000297  00000-0  16514-4 0  9998
2 37839  19.9623  60.7010 0018930 270.5210 171.2568 14.12544902243960
SRMSAT
1 37841U 11058D   16182.90876456  .00000289  00000-0  13400-4 0  9992
2 37841  19.9721  94.8363 0011962 182.2375 246.0049 14.10543454243627
RAX-2
1 37853U 11061D   16182.82974739  .00001391  00000-0  88224-4 0  9994
2 37853 101.7139 227.1087 0181523  43.4413 318.0937 14.99822266253949
AUBIESAT-1
1 37854U 11061E   16182.82340488  .00002102  00000-0  12355-3 0  9995
2 37854 101.7027 232.3025 0172889  33.5874 327.6155 15.02293404254144
M-CUBED/EXP-1 PRIME
1 37855U 11061F   16182.85263766  .00002053  00000-0  11840-3 0  9995
2 37855 101.7171 230.4082 0186659  38.0648 323.3581 15.01221683254040
CHIBIS-M
1 38051U 11062C   14288.65876392  .70201582  12497-4  27925-2 0  9995
2 38051 051.5964 324.1908 0006422 269.6897 186.8903 16.43533377153081
MASAT-1
1 38081U 12006E   15009.86954674  .36181825  49011-5  43735-3 0  9992
2 38081 069.4150 141.5751 0006093 101.2598 259.4750 16.49686879155248
        __  __  __ __ 
|  /  \(__\|  \/  |_   BBS 1200 BPS / IP 44.153.32.97
|__\__/ __/|__/\__|__  (GF05OM) TELNET LU9DCE.DYNU.COM 6300




Read previous mail | Read next mail


 14.09.2026 13:33:39lGo back Go up